TimeEST,TemperatureF,Dew PointF,Humidity,Sea Level PressureIn,VisibilityMPH,Wind Direction,Wind SpeedMPH,Gust SpeedMPH,PrecipitationIn,Events,Conditions,WindDirDegrees,DateUTC
12:15 AM,35.6,35.6,100,30.29,5.0,Calm,Calm,-,N/A,,Clear,0,2013-01-24 05:15:00
12:35 AM,35.6,35.6,100,30.28,5.0,Calm,Calm,-,N/A,,Clear,0,2013-01-24 05:35:00
12:55 AM,35.6,35.6,100,30.29,7.0,Calm,Calm,-,N/A,,Clear,0,2013-01-24 05:55:00
1:15 AM,35.6,35.6,100,30.29,6.0,Calm,Calm,-,N/A,,Clear,0,2013-01-24 06:15:00
1:35 AM,37.4,35.6,93,30.28,8.0,Calm,Calm,-,N/A,,Clear,0,2013-01-24 06:35:00
1:55 AM,35.6,35.6,100,30.29,8.0,Calm,Calm,-,N/A,,Clear,0,2013-01-24 06:55:00
2:15 AM,35.6,35.6,100,30.29,9.0,Calm,Calm,-,N/A,,Clear,0,2013-01-24 07:15:00
2:35 AM,37.4,35.6,93,30.29,6.0,Calm,Calm,-,N/A,,Clear,0,2013-01-24 07:35:00
2:55 AM,37.4,35.6,93,30.29,8.0,WSW,3.5,-,N/A,,Clear,240,2013-01-24 07:55:00
3:15 AM,37.4,35.6,93,30.29,7.0,Calm,Calm,-,N/A,,Clear,0,2013-01-24 08:15:00
3:35 AM,37.4,37.4,100,30.28,7.0,SSW,4.6,-,N/A,,Clear,210,2013-01-24 08:35:00
3:55 AM,39.2,37.4,93,30.27,5.0,Calm,Calm,-,N/A,,Clear,0,2013-01-24 08:55:00
4:15 AM,39.2,37.4,93,30.27,9.0,SW,3.5,-,N/A,,Clear,230,2013-01-24 09:15:00
4:35 AM,44.6,41.0,87,30.26,10.0,Calm,Calm,-,N/A,,Clear,0,2013-01-24 09:35:00
4:55 AM,42.8,39.2,87,30.27,9.0,Calm,Calm,-,N/A,,Clear,0,2013-01-24 09:55:00
5:15 AM,39.2,39.2,100,30.27,10.0,SW,3.5,-,N/A,,Clear,220,2013-01-24 10:15:00
5:35 AM,41.0,39.2,93,30.26,6.0,SSW,3.5,-,N/A,,Clear,210,2013-01-24 10:35:00
5:55 AM,42.8,41.0,93,30.27,6.0,SSW,5.8,-,N/A,,Clear,210,2013-01-24 10:55:00
6:15 AM,41.0,39.2,93,30.27,10.0,Calm,Calm,-,N/A,,Clear,0,2013-01-24 11:15:00
6:35 AM,42.8,41.0,93,30.28,10.0,Calm,Calm,-,N/A,,Clear,0,2013-01-24 11:35:00
6:50 AM,41.0,39.2,93,30.28,10.0,Calm,Calm,-,N/A,,Clear,0,2013-01-24 11:50:00
8:50 AM,50.0,46.4,87,30.29,10.0,West,5.8,-,N/A,,Clear,270,2013-01-24 13:50:00
9:50 AM,60.8,48.2,63,30.32,10.0,West,9.2,-,N/A,,Clear,270,2013-01-24 14:50:00
10:50 AM,64.4,50.0,59,30.32,10.0,West,17.3,-,N/A,,Clear,270,2013-01-24 15:50:00
11:50 AM,68.0,50.0,52,30.28,10.0,West,13.8,-,N/A,,Clear,270,2013-01-24 16:50:00
12:50 PM,71.6,50.0,46,30.25,10.0,West,13.8,-,N/A,,Clear,270,2013-01-24 17:50:00
1:50 PM,71.6,48.2,43,30.25,10.0,West,11.5,-,N/A,,Scattered Clouds,270,2013-01-24 18:50:00
2:50 PM,71.6,48.2,43,30.22,10.0,West,15.0,-,N/A,,Clear,270,2013-01-24 19:50:00
3:50 PM,71.6,46.4,41,30.21,10.0,West,17.3,-,N/A,,Clear,270,2013-01-24 20:50:00
4:50 PM,71.6,46.4,41,30.22,10.0,West,11.5,-,N/A,,Scattered Clouds,270,2013-01-24 21:50:00
5:50 PM,66.2,46.4,49,30.23,10.0,West,5.8,-,N/A,,Partly Cloudy,270,2013-01-24 22:50:00
6:50 PM,57.2,48.2,72,30.24,10.0,Calm,Calm,-,N/A,,Partly Cloudy,0,2013-01-24 23:50:00
7:50 PM,53.6,46.4,77,30.25,10.0,Calm,Calm,-,N/A,,Partly Cloudy,0,2013-01-25 00:50:00
8:15 PM,50.0,46.4,87,30.27,8.0,Calm,Calm,-,N/A,,Partly Cloudy,0,2013-01-25 01:15:00
8:35 PM,50.0,46.4,87,30.27,8.0,Calm,Calm,-,N/A,,Scattered Clouds,0,2013-01-25 01:35:00
8:55 PM,50.0,46.4,87,30.27,7.0,Calm,Calm,-,N/A,,Mostly Cloudy,0,2013-01-25 01:55:00
9:15 PM,51.8,46.4,82,30.27,8.0,Calm,Calm,-,N/A,,Mostly Cloudy,0,2013-01-25 02:15:00
9:35 PM,51.8,48.2,88,30.27,7.0,Calm,Calm,-,N/A,,Partly Cloudy,0,2013-01-25 02:35:00
9:55 PM,50.0,48.2,94,30.29,6.0,Calm,Calm,-,N/A,,Partly Cloudy,0,2013-01-25 02:55:00
10:15 PM,50.0,48.2,94,30.29,5.0,Calm,Calm,-,N/A,,Partly Cloudy,0,2013-01-25 03:15:00
10:35 PM,50.0,48.2,94,30.29,5.0,Calm,Calm,-,N/A,,Scattered Clouds,0,2013-01-25 03:35:00
10:55 PM,50.0,46.4,87,30.29,7.0,SSW,3.5,-,N/A,,Partly Cloudy,210,2013-01-25 03:55:00
11:15 PM,51.8,48.2,88,30.30,10.0,North,5.8,-,N/A,,Clear,10,2013-01-25 04:15:00
11:35 PM,55.4,48.2,77,30.30,10.0,North,11.5,-,N/A,,Clear,10,2013-01-25 04:35:00
11:55 PM,57.2,48.2,72,30.30,10.0,NNE,9.2,-,N/A,,Clear,30,2013-01-25 04:55:00